Regional Weather Roundup
Issued by NWS Newport/Morehead, NC

Current Version | Previous Version | Graphics & Text | Print | Product List | Glossary Off
Versions: 1 2 3 4 5 6 7 8 9 10 11 12 13 14 15 16 17 18 19 20 21 22 23 24 25 26 27 28 29 30 31 32 33 34 35 36 37 38 39 40 41 42 43 44 45 46 47 48 49 50
000 ASUS42 KMHX 060113 RWRMHX WEATHER ROUNDUP FOR EASTERN NORTH CAROLINA NATIONAL WEATHER SERVICE NEWPORT/MOREHEAD CITY NC 900 PM EDT SUN JUL 05 2015 NOTE: "FAIR" INDICATES FEW OR NO CLOUDS BELOW 12,000 FEET WITH NO SIGNIFICANT WEATHER AND/OR OBSTRUCTIONS TO VISIBILITY NCZ015>017-031-032-045>047-102-103-060200- NORTH COAST CITY SKY/WX TMP DP RH WIND PRES REMARKS EDENTON N/A 82 73 72 S9 30.08R ELIZABETH CITY PTCLDY 81 74 79 S6 30.09R KITTY HAWK CLEAR 81 72 74 S7 30.09S MANTEO CLEAR 81 74 80 S15 30.10S $$ NCZ045>047-081-094-103-104-060200- CENTRAL COAST CITY SKY/WX TMP DP RH WIND PRES REMARKS FRISCO CLEAR 78 75 90 SW10 30.13R SWANQUARTER N/A 82 N/A N/A S16G23 30.06S $$ NCZ095-097-098-100-101-060200- SOUTHERN COAST CITY SKY/WX TMP DP RH WIND PRES REMARKS BEAUFORT CLEAR 80 76 87 SW14 30.13R CEDAR ISLAND N/A 81 N/A N/A S8 30.18R JACKSONVILLE PTCLDY 79 73 82 S7 30.11R PINEY ISLAND CLEAR N/A N/A N/A S7 30.13R WILMINGTON MOCLDY 80 72 76 SW10 30.11S $$ NCZ011>013-027>030-043-044-078>080-089-090>093-098-060200- COASTAL PLAIN CITY SKY/WX TMP DP RH WIND PRES REMARKS AHOSKIE MOCLDY N/A N/A N/A NW5 30.10S CLINTON MOCLDY 80 73 79 SW6 30.10R ELIZABETHTOWN MOCLDY 78 73 82 S3 30.10F GOLDSBORO PTCLDY 83 72 69 S6 30.06S GREENVILLE PTCLDY 82 72 69 S7 30.10R HAVELOCK CLEAR 79 74 84 S7 30.12F KENANSVILLE MOCLDY 81 72 73 CALM 30.11R KINSTON MOCLDY 82 70 65 S7 30.09S NEW BERN CLEAR 80 73 79 S9 30.12R RICHLANDS PTCLDY 81 70 69 S6 30.11S ROCKY MOUNT MOCLDY 75 73 93 CALM 30.09R WASHINGTON CLEAR 82 71 69 S8 30.10R WHITEVILLE CLOUDY 80 71 73 S6 30.11R $$ AMZ130-135-150-152-154-156-158-170-250-252-270-ANZ085-086-088-633-658-670-060200- MARINE OBSERVATIONS STATION/POSITION TIME TEMP WIND PRES WAVE SWELL AIR SEA DIR/SP/G HT/PER HT/PER (UTC) (F) (DEG/KT/KT) (MB) (FT/S) (FT/S) CHESAPEAKE LIGHT 0100 77 100/ 12/ 12 1019.9 64 E VA BEACH 0050 78 78 130/ 8/ 8 1019.3 3/ 6 3/ 6 DUCK 0000 83 77 180/ 10/ 12 N/A 2 E DUCK 0011 79 N/A 2/13 2/13 OREGON INLET 0000 81 83 180/ 14/ 16 1019.2 13E OREGON INLT 0100 78 N/A 3/ 5 2/14 HATTERAS CG 0000 80 81 180/ 5/ 10 1019.4 DIAMOND BUOY 0050 81 81 210/ 14/ 17 1019.8 3/ 8 2/ 8 CAPE LOOKOUT 0100 80 210/ 11/ 15 1020.2 BEAUFORT LAB 0000 81 83 200/ 11/ 18 1019.0 30 SE NEW RVR IN NOT AVBL 27 SE WRIGHTSVLE 0000 80 230/ 14/ 16 N/A 5 SE WRIGHTSVLE NOT AVBL 225 S CAPE HAT 0050 81 80 180/ 10/ 12 1022.6 4/ 9 3/ 9 41 SE CHARLESTON 0050 82 83 210/ 17/ 21 1019.5 4/ 9 2/ 9 $$

USA.gov is the U.S. government's official web portal to all federal, state and local government web resources and services.